Regional Weather Roundup
Issued by NWS

Home | Current Version | Previous Version | Text Only | Print | Product List | Glossary On
Versions: 1 2 3 4 5 6 7 8 9 10 11 12 13 14 15 16 17 18 19 20 21 22 23 24 25 26 27 28 29 30 31 32 33 34 35 36 37 38 39 40 41 42 43 44 45 46 47 48 49 50
792
ASUS43 KLSX 201207
RWRMO

WEATHER SUMMARY FOR MISSOURI
NATIONAL WEATHER SERVICE SPRINGFIELD MO
600 AM CST MON FEB 20 2017

NOTE: "FAIR" INDICATES FEW OR NO CLOUDS BELOW 12,000 FEET WITH NO
       SIGNIFICANT WEATHER AND/OR OBSTRUCTIONS TO VISIBILITY.
       CURRENT SKY AND/OR WEATHER CONDITIONS ARE NOT AVAILABLE FOR
       CHILLICOTHE AND FARMINGTON.

MOZ001>031-035>038-043-044-053-054-201300-
...NORTHERN AND WESTERN MISSOURI...

CITY           SKY/WX    TMP DP  RH WIND       PRES   REMARKS
KANSAS CTY INT CLOUDY    61  56  83 S13       29.83F
6HR MIN TEMP:  60; 6HR MAX TEMP:  64; 6HR PCP:  0.03;

KANSAS C DTWN  CLOUDY    63  55  75 S6        29.84F
6HR MIN TEMP:  63; 6HR MAX TEMP:  65; 6HR PCP: TRACE;

LEE`S SUMMIT   CLOUDY    62  55  77 S9        29.86R
6HR MIN TEMP:  61; 6HR MAX TEMP:  63;

ST JOSEPH      CLOUDY    63  56  78 SE10      29.81F
6HR MIN TEMP:  55; 6HR MAX TEMP:  63; 6HR PCP: TRACE;

CHILLICOTHE      N/A     60  55  83 SE8       29.87F
6HR MIN TEMP:  60; 6HR MAX TEMP:  64;

KIRKSVILLE     CLOUDY    56  54  93 SE10      29.93F
6HR MIN TEMP:  53; 6HR MAX TEMP:  57;


$$
MOZ066>068-077>081-088>096-101>105-201300-
...SOUTHWEST MISSOURI...

CITY           SKY/WX    TMP DP  RH WIND       PRES   REMARKS
SPRINGFIELD    CLOUDY    60  55  83 SE17      29.91R
6HR MIN TEMP:  60; 6HR MAX TEMP:  61;

JOPLIN         PTCLDY    64  53  67 SE13      29.83F
6HR MIN TEMP:  62; 6HR MAX TEMP:  67;

BRANSON        CLEAR     55  55 100 SE7       29.95S

$$
MOZ032>034-039>042-045>050-055>058-069>072-201300-
...CENTRAL MISSOURI...

CITY           SKY/WX    TMP DP  RH WIND       PRES   REMARKS
COLUMBIA       MOCLDY    59  55  87 SE14      29.94F
6HR MIN TEMP:  58; 6HR MAX TEMP:  61;

JEFFERSON CITY PTCLDY    58  54  86 E9        29.95S
6HR MIN TEMP:  58; 6HR MAX TEMP:  61;

ROLLA          PTCLDY    58  52  80 S12       29.98S
6HR MIN TEMP:  57; 6HR MAX TEMP:  59;

SEDALIA        CLOUDY    63  55  75 SE15      29.89F
6HR MIN TEMP:  60; 6HR MAX TEMP:  63;

WHITEMAN AFB   CLOUDY    62  60  94 S15       29.86F
WARRENSBURG    PTCLDY    59  52  77 SE8       29.86R
OSAGE BEACH    PTCLDY    61  54  77 SE12      29.95F

$$
MOZ051-052-059>065-201300-
...EAST CENTRAL MISSOURI...

CITY           SKY/WX    TMP DP  RH WIND       PRES   REMARKS
ST LOUIS INTL  CLOUDY    53  50  89 SE9       30.04S
6HR MIN TEMP:  52; 6HR MAX TEMP:  58;

SPIRIT OF STL  CLOUDY    50  50 100 E6        30.01F FOG
6HR MIN TEMP:  44; 6HR MAX TEMP:  55; 6HR PCP: TRACE;

ST CHARLES     CLOUDY    49  49 100 E13       30.03S FOG
6HR MIN TEMP:  48; 6HR MAX TEMP:  51;


$$
MOZ072>076-082>087-097>100-106>115-201300-
...SOUTH CENTRAL AND SOUTHEAST MISSOURI...

CITY           SKY/WX    TMP DP  RH WIND       PRES   REMARKS
CAPE GIRARDEAU PTCLDY    50  47  89 E3        30.07S
6HR MIN TEMP:  44; 6HR MAX TEMP:  50;

FARMINGTON     CLOUDY    54  50  86 SE6       30.05F
6HR MIN TEMP:  52; 6HR MAX TEMP:  56;

POPLAR BLUFF   CLOUDY    50  49  96 N7        30.05R FOG
6HR MIN TEMP:  49; 6HR MAX TEMP:  52;

WEST PLAINS    PTCLDY    56  51  84 SE7       30.03R
6HR MIN TEMP:  55; 6HR MAX TEMP:  58;


$$



USA.gov is the U.S. government's official web portal to all federal, state and local government web resources and services.